Location: Newark
(36.0797°N, 3.9744°E)
Time: 21:41:03
(UTC+00:00)

Courier 1B Rocket - All Passes

Search period start: 13 December 2019 00:00
Search period end: 23 December 2019 00:00
Orbit: 920 x 1202 km, 28.2° (Epoch: 12 December)

Date Brightness Start Highest point End Pass type
(mag) Time Alt. Az. Time Alt. Az. Time Alt. Az.
13 Dec - 03:19:38 10° SSW 03:24:41 20° SSE 03:29:31 10° ESE visible
13 Dec - 05:11:09 10° SW 05:17:37 37° SSE 05:23:41 10° ESE visible
13 Dec - 07:04:13 10° WSW 07:10:40 43° S 07:16:44 10° ESE daylight
13 Dec - 08:57:58 10° WSW 09:03:33 30° SSW 09:08:55 10° SE daylight
13 Dec - 10:53:50 10° SW 10:56:04 12° SSW 10:58:18 10° S daylight
14 Dec - 02:19:54 10° S 02:23:45 15° SSE 02:27:30 10° ESE visible
14 Dec - 04:10:17 10° SW 04:16:39 32° SSE 04:22:40 10° ESE visible
14 Dec - 06:03:03 10° WSW 06:09:43 44° S 06:15:57 10° ESE visible
14 Dec - 07:56:37 10° WSW 08:02:43 36° SSW 08:08:29 10° SE daylight
14 Dec - 09:51:16 10° WSW 09:55:21 18° SSW 09:59:22 10° SSE daylight
15 Dec - 03:09:36 10° SW 03:15:40 27° SSE 03:21:27 10° ESE visible
15 Dec - 05:01:56 10° WSW 05:08:44 42° S 05:15:05 10° ESE visible
15 Dec - 06:55:20 10° WSW 07:01:49 41° S 07:07:54 10° ESE daylight
15 Dec - 08:49:27 10° WSW 08:54:37 24° SSW 08:59:34 10° SSE daylight
16 Dec - 02:09:15 10° SSW 02:14:41 21° SSE 02:19:57 10° ESE visible
16 Dec - 04:00:53 10° SW 04:07:42 38° S 04:14:07 10° ESE visible
16 Dec - 05:54:03 10° WSW 06:00:52 44° S 06:07:12 10° ESE visible
16 Dec - 07:47:55 10° WSW 07:53:48 31° SSW 07:59:23 10° SE daylight
16 Dec - 09:43:55 10° SW 09:46:21 12° SSW 09:48:43 10° S daylight
17 Dec - 01:09:25 10° S 01:13:43 16° SSE 01:17:56 10° ESE night (unlit)
17 Dec - 02:59:58 10° SW 03:06:40 34° SSE 03:13:03 10° ESE visible
17 Dec - 04:52:50 10° WSW 04:59:51 45° S 05:06:23 10° ESE visible
17 Dec - 06:46:30 10° WSW 06:52:56 37° SSW 06:58:58 10° SE daylight
17 Dec - 08:41:16 10° WSW 08:45:37 18° SSW 08:49:50 10° SSE daylight
18 Dec - 00:11:11 10° SSE 00:12:46 11° SSE 00:14:20 10° SE night (unlit)
18 Dec - 01:59:17 10° SW 02:05:38 28° SSE 02:11:46 10° ESE visible
18 Dec - 03:51:40 10° WSW 03:58:47 44° S 04:05:29 10° ESE visible
18 Dec - 05:45:08 10° WSW 05:51:58 42° S 05:58:21 10° ESE visible
18 Dec - 07:39:22 10° WSW 07:44:51 25° SSW 07:50:02 10° SSE daylight
19 Dec - 00:58:55 10° SSW 01:04:37 22° SSE 01:10:12 10° ESE night (unlit)
19 Dec - 02:50:36 10° SW 02:57:41 40° S 03:04:27 10° ESE visible
19 Dec - 04:43:49 10° WSW 04:50:56 46° S 04:57:36 10° ESE visible
19 Dec - 06:37:45 10° WSW 06:43:59 32° SSW 06:49:51 10° SE daylight
19 Dec - 08:33:47 10° SW 08:36:34 13° SSW 08:39:17 10° S daylight
19 Dec - 23:59:05 10° S 00:03:38 16° SSE 00:08:08 10° ESE night (unlit)
20 Dec - 01:49:42 10° SW 01:56:36 35° SSE 02:03:17 10° ESE visible
20 Dec - 03:42:34 10° WSW 03:49:51 47° S 03:56:44 10° ESE visible
20 Dec - 05:36:16 10° WSW 05:43:02 38° SSW 05:49:23 10° SE visible
20 Dec - 07:31:06 10° WSW 07:35:48 19° SSW 07:40:18 10° SSE daylight
20 Dec - 23:00:41 10° SSE 23:02:41 11° SSE 23:04:40 10° SE night (unlit)
21 Dec - 00:49:02 10° SW 00:55:31 29° SSE 01:01:55 10° ESE night (unlit)
21 Dec - 02:41:24 10° WSW 02:48:43 45° S 02:55:44 10° ESE visible
21 Dec - 04:34:53 10° WSW 04:42:00 44° S 04:48:43 10° ESE visible
21 Dec - 06:29:09 10° WSW 06:34:58 26° SSW 06:40:29 10° SSE daylight
21 Dec - 23:48:43 10° SSW 23:54:30 23° SSE 00:00:16 10° ESE night (unlit)
22 Dec - 01:40:22 10° SW 01:47:35 41° SSE 01:54:37 10° ESE visible
22 Dec - 03:33:34 10° WSW 03:40:54 47° S 03:47:54 10° ESE visible
22 Dec - 05:27:30 10° WSW 05:34:03 33° SSW 05:40:14 10° SE visible
22 Dec - 07:23:28 10° WSW 07:26:42 13° SSW 07:29:51 10° S daylight
22 Dec - 22:48:57 10° S 22:53:31 17° SSE 22:58:07 10° ESE night (unlit)
